Tracking 23764 objects as of 16-Oct-2021
HD Live streaming from Space Station
objects crossing your sky now

IRIDIUM 33 DEB

Track IRIDIUM 33 DEB now!
10-day predictions


NORAD ID: 46970
Int'l Code: 1997-051ACC
Perigee: 593.5 km
Apogee: 626.6 km
Inclination: 86.2 °
Period: 96.7 minutes
Semi major axis: 6981 km
RCS: Unknown
Launch date: September 14, 1997
Source: United States (US)
Launch site: TYURATAM MISSILE AND SPACE COMPLEX (TTMTR)

Note: This is SATELLITE DEBRIS
aabbcc
Your satellite tracking list
Your tracking list is empty




NASA's NSSDC Master Catalog

Two Line Element Set (TLE):
1 46970U 97051ACC 21288.44534903  .00012061  00000-0  12911-2 0  9997
2 46970  86.1873 167.2541 0023708  96.6990  24.3896 14.88401151424528
Source of the keplerian elements: AFSPC